Tracking 31027 objects as of 19-Jul-2025
HD Live streaming from Space Station
objects crossing your sky now

ARIANE 2 DEB

Track ARIANE 2 DEB now!


NORAD ID: 26727
Int'l Code: 1989-006E
Perigee: 601.0 km
Apogee: 35,301.2 km
Inclination: 8.0 °
Period: 629.2 minutes
Semi major axis: 24322 km
RCS: 0.356 m2 (medium)
Launch date: January 27, 1989
Source: France (FR)
Launch site: FRENCH GUIANA (FRGUI)

Note: This is SATELLITE DEBRIS
Your satellite tracking list
STARLINK-3349
Track 1 satellite(s)




NASA's NSSDC Master Catalog

Two Line Element Set (TLE):
1 26727U 89006E   25199.30417752 -.00000074  00000-0 -97710-3 0  9992
2 26727   8.0294 228.4947 7133477 137.8452 267.0369  2.28876735204037
Source of the keplerian elements: AFSPC